Snowfall_Accumulation
0.0 0.0 0.0 0.0 0.0 0.0 0.0 0.0 0.0 0.0 0.0 0.0 0.0 0.0 0.0 0.0 0.0 0.0 0.0 0.0 0.0 0.1 0.0 0.1 0.3 0.3 0.6 0.8 0.9 1.5 1.8 1.8 1.4 0.2 0.0 0.0 0.1 0.1 0.1 0.0 0.0 0.0 0.0
0.0 0.0 0.0 0.0 0.0 0.0 0.0 0.0 0.0 0.1 0.0 0.0 0.0 0.0 0.0 0.0 0.0 0.0 0.0 0.1 0.2 0.6 0.7 0.9 1.0 0.8 2.3 2.4 2.3 2.0 1.5 1.2 1.4 0.3 0.0 0.0 0.0 0.0 0.0 0.1 0.0 0.0 0.0
0.0 0.0 0.0 0.0 0.0 0.1 0.1 0.0 0.0 0.0 0.0 0.0 0.0 0.0 0.1 0.1 0.1 0.4 0.6 1.2 1.6 2.2 2.5 2.8 3.2 3.0 2.6 1.9 1.9 1.7 1.5 1.2 1.5 1.8 0.3 0.0 0.0 0.0 0.0 0.0 0.0 0.0 0.0
0.0 0.0 0.0 0.0 0.0 0.0 0.0 0.1 0.1 0.0 0.0 0.0 0.2 0.4 0.7 0.9 1.4 1.9 2.2 2.6 3.0 3.1 2.8 2.7 2.4 2.2 2.1 2.0 1.8 1.7 1.4 1.2 0.8 0.9 0.3 0.1 0.1 0.1 0.1 0.2 0.2 0.1 0.1
0.0 0.0 0.0 0.0 0.0 0.0 0.0 0.0 0.0 0.1 0.3 0.7 1.1 1.8 2.0 3.0 2.8 3.5 3.2 3.5 3.3 3.0 2.7 2.6 2.4 1.5 nan nan 1.2 0.6 0.5 0.4 0.3 0.3 0.2 0.2 0.2 0.3 0.3 0.2 0.4 0.3 0.2
0.0 0.0 0.0 0.0 0.0 0.1 0.1 0.3 0.6 1.8 2.3 2.6 3.3 3.1 3.2 2.4 nan nan 3.2 3.1 3.0 2.8 2.6 2.3 1.7 0.7 0.3 nan nan nan nan 0.0 0.1 0.5 0.4 0.3 0.0 0.3 0.4 0.6 1.0 1.9 2.6
0.1 0.1 0.2 0.1 0.3 0.7 0.5 0.7 1.9 2.9 2.0 3.0 2.9 2.7 2.6 2.6 nan nan nan 1.9 1.6 1.0 0.8 0.2 0.1 0.0 0.1 0.0 nan nan nan nan nan 0.0 0.1 0.2 0.2 0.1 0.2 0.6 0.6 1.4 1.2
0.9 0.8 0.6 0.4 1.0 1.1 0.9 1.5 1.7 1.5 1.5 1.6 1.7 1.6 1.3 0.9 nan nan nan 0.1 0.1 0.1 0.1 0.1 0.0 0.0 0.0 0.0 0.0 0.1 0.1 0.1 0.1 0.1 0.2 0.2 0.2 0.4 1.0 0.8 1.0 0.9 1.6
2.0 2.0 2.0 1.3 1.4 1.1 1.2 1.2 1.4 1.4 1.4 1.4 1.3 0.8 0.7 0.1 nan nan 0.0 0.0 0.0 0.0 0.0 0.0 0.0 0.0 nan nan 0.1 0.2 0.3 0.2 nan nan nan nan nan nan nan 3.5 10.5 13.7 8.2
1.0 1.1 1.1 1.0 0.9 1.1 0.8 0.8 0.9 0.6 0.5 0.8 0.1 0.1 0.0 0.1 nan nan nan 0.4 0.1 0.6 0.1 0.1 0.1 0.1 nan nan 0.1 0.3 1.0 0.4 0.5 1.6 0.8 0.4 nan nan nan 1.2 4.9 15.2 10.8
0.5 0.3 0.3 0.3 0.7 0.3 0.3 0.3 0.5 0.6 0.3 0.8 1.0 0.5 0.6 0.2 0.1 nan nan 0.2 0.8 1.7 1.6 1.4 0.9 nan nan nan nan 1.2 1.7 1.2 3.9 3.9 3.2 3.6 3.0 2.3 2.6 2.6 2.7 5.8 10.6
0.8 0.9 1.0 1.7 1.0 0.9 2.8 1.4 2.3 1.8 2.0 2.0 2.3 1.9 1.6 0.4 nan nan nan nan nan 2.7 1.5 1.2 1.0 nan nan nan 1.3 nan nan 2.3 6.4 7.9 7.7 6.2 5.2 4.9 4.4 4.1 2.5 3.2 3.8
2.8 4.3 3.8 2.9 2.4 2.2 3.6 2.3 4.0 2.8 4.0 2.3 3.4 3.4 3.1 2.6 2.1 nan nan nan nan 2.6 2.1 1.8 nan nan nan nan nan nan 2.2 6.1 7.5 10.7 7.5 5.5 4.2 4.7 4.4 5.4 3.9 4.6 4.6
5.1 2.7 1.9 2.4 1.4 1.8 2.5 2.9 4.5 4.4 4.1 4.5 5.6 5.4 3.9 3.8 2.8 3.2 4.4 3.5 2.3 3.9 nan 4.1 nan 3.4 nan nan 4.6 4.5 4.6 5.3 7.6 8.5 7.7 6.0 6.8 7.8 7.5 5.6 7.9 7.0 11.7
3.3 2.1 2.5 3.1 3.2 2.1 1.9 3.2 2.8 1.3 3.5 7.9 9.5 7.4 10.2 10.3 5.8 2.2 6.0 7.4 5.7 5.2 5.8 9.4 9.5 7.1 6.0 5.8 6.4 6.6 6.9 7.3 8.8 7.9 9.9 11.3 10.7 9.5 9.1 7.3 8.2 11.3 13.2
2.3 3.7 3.3 3.2 3.2 3.0 3.4 4.3 nan nan nan nan nan 4.7 6.3 nan nan nan nan nan nan nan 15.1 16.5 10.4 8.5 7.4 7.3 8.4 8.7 7.9 7.2 8.2 9.8 11.6 11.3 11.4 11.2 11.1 12.5 12.1 14.3 15.9
5.1 4.2 5.2 4.7 5.3 5.6 5.8 6.7 8.8 5.8 nan nan nan nan nan nan nan nan nan nan nan nan 23.3 13.7 11.9 9.7 9.3 8.0 9.0 9.2 10.6 9.0 7.4 11.6 10.4 11.3 12.8 13.7 15.1 15.1 14.1 12.3 15.8
7.4 2.6 7.8 7.7 7.2 8.0 8.1 8.5 9.0 11.7 13.4 10.6 nan nan nan nan nan nan nan nan 26.6 nan 19.1 19.9 17.5 14.4 11.8 11.7 10.4 10.8 10.9 11.3 11.4 11.7 12.2 14.7 17.1 19.3 19.4 18.3 14.9 18.0 18.1
9.8 8.7 9.1 8.9 8.9 9.1 9.9 10.0 10.7 11.1 11.1 12.7 12.5 12.3 6.4 nan nan nan nan 15.9 20.7 20.0 20.5 21.1 17.7 17.2 15.0 15.4 14.8 16.1 14.9 16.3 15.8 19.6 19.5 20.8 19.9 21.3 22.4 17.0 15.0 9.5 10.8
12.0 4.9 8.9 13.1 12.4 11.7 9.9 11.6 11.4 11.1 11.9 12.5 13.0 12.0 16.9 16.4 21.5 21.3 18.3 22.8 22.6 21.9 20.1 22.2 22.2 23.3 24.2 23.2 23.1 22.0 23.2 23.8 22.7 23.2 23.5 22.4 21.6 23.1 20.0 22.2 19.7 19.0 19.3
16.9 14.8 3.7 13.9 16.4 17.1 16.9 15.0 13.6 15.8 14.8 17.7 15.8 15.4 nan 22.0 22.7 22.5 23.1 24.1 25.0 27.0 24.8 25.2 26.2 30.3 30.2 32.4 29.9 30.1 28.4 21.8 24.4 26.0 26.7 27.0 26.4 31.8 21.6 17.0 20.3 20.9 20.3
18.6 19.1 19.0 20.5 16.3 16.9 18.9 16.1 17.6 18.2 18.3 16.9 15.2 16.0 nan 18.0 19.0 20.3 22.3 26.0 29.2 29.0 30.9 34.1 33.5 35.0 32.8 31.9 30.6 29.2 26.2 28.3 29.1 28.3 25.5 25.6 27.9 25.4 24.5 19.7 19.8 18.0 21.0
19.6 18.4 18.5 18.3 18.0 7.9 19.4 21.1 19.8 19.4 18.7 19.7 18.8 18.7 20.3 23.7 22.1 21.4 26.4 27.8 24.8 24.2 25.4 26.8 25.5 25.3 23.8 26.3 24.6 25.0 27.3 27.9 28.2 32.8 27.6 27.3 26.1 27.6 25.3 23.6 21.2 22.9 21.1
18.3 18.4 18.1 20.7 19.5 17.7 19.4 20.2 18.6 7.3 19.5 20.6 26.7 23.7 17.3 20.0 25.4 21.6 21.8 24.0 21.3 29.3 24.0 25.1 22.6 22.6 24.0 30.3 35.2 35.0 37.1 38.6 38.0 36.1 33.4 27.3 26.3 21.4 23.1 24.4 20.4 19.2 17.9
18.7 17.5 17.7 17.4 22.3 19.5 18.5 20.6 16.4 19.9 22.4 18.6 21.4 16.9 17.8 17.0 18.7 23.6 22.6 19.8 21.7 20.4 18.6 18.7 19.5 20.4 21.1 22.1 27.2 31.3 29.3 5.0 21.0 5.4 29.9 24.4 27.3 27.3 26.6 23.3 21.5 19.3 17.5
16.4 16.8 17.0 17.0 16.7 17.7 18.4 18.0 18.4 15.5 18.3 19.0 18.3 18.4 17.0 17.2 17.3 19.6 19.6 20.4 18.7 18.8 19.5 20.6 21.1 20.2 19.7 21.3 21.8 7.9 4.8 4.3 27.9 4.7 26.7 24.7 26.6 25.2 24.5 24.3 23.1 21.8 18.5
Water_Equivalent
0.00 0.00 0.00 0.00 0.00 0.00 0.00 0.00 0.00 0.00 0.00 0.00 0.00 0.00 0.00 0.00 0.00 0.00 0.00 0.00 0.00 0.01 0.01 0.01 0.07 0.09 0.15 0.18 0.19 0.29 0.32 0.28 0.17 0.03 0.00 0.00 0.03 0.02 0.02 0.00 0.00 0.00 0.00
0.00 0.00 0.00 0.00 0.00 0.01 0.00 0.00 0.00 0.01 0.00 0.01 0.00 0.00 0.00 0.00 0.00 0.00 0.01 0.01 0.04 0.14 0.18 0.21 0.25 0.19 0.44 0.45 0.38 0.29 0.21 0.18 0.18 0.04 0.00 0.00 0.01 0.00 0.00 0.02 0.00 0.00 0.00
0.00 0.00 0.00 0.00 0.00 0.02 0.01 0.00 0.00 0.00 0.00 0.00 0.00 0.01 0.02 0.02 0.02 0.07 0.12 0.31 0.41 0.56 0.58 0.58 0.62 0.51 0.41 0.28 0.27 0.23 0.21 0.19 0.22 0.25 0.06 0.01 0.01 0.01 0.01 0.01 0.00 0.00 0.00
0.01 0.01 0.00 0.00 0.00 0.00 0.01 0.01 0.01 0.00 0.00 0.00 0.05 0.11 0.21 0.27 0.44 0.56 0.62 0.68 0.70 0.65 0.56 0.44 0.35 0.32 0.29 0.28 0.26 0.23 0.21 0.18 0.13 0.15 0.08 0.04 0.04 0.04 0.05 0.07 0.08 0.05 0.05
0.01 0.00 0.00 0.00 0.00 0.01 0.00 0.00 0.01 0.02 0.06 0.23 0.38 0.58 0.62 0.81 0.73 0.83 0.72 0.69 0.54 0.45 0.39 0.39 0.34 0.30 nan nan 0.19 0.08 0.07 0.07 0.09 0.09 0.08 0.07 0.07 0.10 0.10 0.07 0.14 0.09 0.07
0.00 0.00 0.00 0.00 0.00 0.01 0.05 0.10 0.21 0.54 0.68 0.72 0.88 0.77 0.69 0.51 nan nan 0.50 0.47 0.44 0.40 0.36 0.33 0.25 0.12 0.04 nan nan nan nan 0.01 0.01 0.16 0.11 0.08 0.01 0.10 0.14 0.18 0.23 0.42 0.41
0.03 0.03 0.04 0.02 0.07 0.15 0.10 0.12 0.33 0.49 0.34 0.49 0.48 0.46 0.43 0.44 nan nan nan 0.29 0.24 0.15 0.12 0.03 0.01 0.01 0.02 0.00 nan nan nan nan nan 0.00 0.02 0.04 0.03 0.01 0.03 0.09 0.09 0.24 0.24
0.15 0.13 0.10 0.07 0.19 0.20 0.16 0.26 0.29 0.27 0.27 0.27 0.26 0.23 0.19 0.13 nan nan nan 0.01 0.01 0.01 0.01 0.01 0.01 0.00 0.00 0.01 0.00 0.01 0.02 0.02 0.02 0.01 0.03 0.04 0.03 0.06 0.13 0.10 0.13 0.14 0.36
0.28 0.30 0.32 0.24 0.27 0.21 0.21 0.21 0.24 0.23 0.22 0.23 0.21 0.18 0.16 0.03 nan nan 0.00 0.00 0.00 0.00 0.00 0.00 0.00 0.00 nan nan 0.01 0.04 0.04 0.03 nan nan nan nan nan nan nan 0.76 2.31 2.66 1.41
0.15 0.16 0.18 0.19 0.19 0.21 0.16 0.16 0.17 0.13 0.11 0.19 0.03 0.04 0.01 0.03 nan nan nan 0.17 0.04 0.16 0.02 0.02 0.04 0.02 nan nan 0.02 0.05 0.19 0.06 0.08 0.34 0.13 0.06 nan nan nan 0.14 0.86 2.46 1.59
0.11 0.07 0.06 0.07 0.14 0.06 0.07 0.06 0.09 0.12 0.06 0.15 0.18 0.11 0.14 0.04 0.02 nan nan 0.07 0.24 0.40 0.38 0.30 0.20 nan nan nan nan 0.16 0.22 0.15 0.75 0.73 0.57 0.66 0.47 0.33 0.46 0.39 0.29 0.77 1.39
0.09 0.11 0.13 0.26 0.16 0.14 0.49 0.24 0.42 0.31 0.35 0.35 0.41 0.38 0.35 0.08 nan nan nan nan nan 0.68 0.30 0.27 0.22 nan nan nan 0.32 nan nan 0.48 1.38 1.55 1.43 1.10 0.84 0.74 0.61 0.56 0.25 0.37 0.46
0.37 0.61 0.56 0.46 0.38 0.36 0.63 0.36 0.70 0.47 0.69 0.36 0.58 0.56 0.49 0.48 0.46 nan nan nan nan 0.58 0.45 0.36 nan nan nan nan nan nan 0.72 1.10 1.34 1.79 1.17 0.79 0.57 0.59 0.47 0.59 0.38 0.46 0.43
0.80 0.37 0.26 0.34 0.24 0.28 0.47 0.56 0.87 0.76 0.67 0.76 0.94 0.89 0.62 0.60 0.49 0.58 0.89 0.71 0.61 0.80 nan 0.78 nan 0.60 nan nan 0.83 0.70 0.73 0.79 1.01 1.12 0.98 0.72 0.79 0.93 0.93 0.71 0.98 0.85 1.47
0.48 0.26 0.34 0.50 0.54 0.31 0.29 0.54 0.46 0.21 0.60 1.33 1.68 1.23 1.56 1.53 0.97 0.39 1.20 1.54 1.29 1.19 1.31 1.78 1.61 1.12 0.92 0.86 0.97 0.93 0.94 1.04 1.21 1.07 1.28 1.30 1.24 1.11 1.08 0.89 0.98 1.32 1.62
0.26 0.47 0.46 0.47 0.44 0.40 0.44 0.50 nan nan nan nan nan 0.91 1.28 nan nan nan nan nan nan nan 2.98 2.87 1.50 1.17 0.94 0.90 1.04 1.04 0.98 1.02 1.03 1.23 1.44 1.34 1.31 1.25 1.24 1.37 1.40 1.65 1.76
0.63 0.43 0.64 0.58 0.60 0.66 0.70 0.81 0.97 0.68 nan nan nan nan nan nan nan nan nan nan nan nan 4.17 2.06 1.60 1.18 1.10 0.89 1.03 1.00 1.09 0.97 0.76 1.36 1.21 1.29 1.50 1.61 1.86 1.69 1.54 1.35 1.94
0.81 0.87 0.91 0.88 0.84 0.94 0.99 1.05 1.12 1.36 1.52 1.20 nan nan nan nan nan nan nan nan 4.31 nan 3.01 2.97 2.48 1.93 1.46 1.36 1.17 1.17 1.17 1.20 1.19 1.28 1.36 1.82 2.19 2.41 2.35 2.27 1.77 2.26 2.27
0.98 0.91 0.96 0.97 0.95 1.01 1.13 1.08 1.19 1.16 1.16 1.41 1.43 1.49 1.30 nan nan nan nan 2.48 3.23 2.88 2.90 2.98 2.39 2.25 1.85 1.93 1.84 2.07 1.77 1.90 1.84 2.48 2.53 2.75 2.55 2.74 2.90 2.10 1.74 1.56 1.72
1.11 1.20 1.17 1.42 1.21 1.10 0.90 1.10 1.04 1.05 1.12 1.29 1.36 1.27 2.12 2.32 3.10 3.16 2.63 3.51 3.44 3.15 2.75 3.09 3.13 3.37 3.54 3.33 3.26 3.01 3.08 3.17 2.91 3.00 3.01 2.88 2.77 3.01 2.29 2.86 2.50 2.25 2.41
1.72 1.43 1.22 1.33 1.70 1.83 1.83 1.51 1.33 1.63 1.49 1.88 1.59 1.59 nan 2.57 2.69 2.81 3.14 3.02 3.34 3.68 3.15 3.36 3.48 4.33 4.50 4.93 4.22 4.07 3.79 2.56 3.04 3.27 3.44 3.45 3.34 4.14 2.62 1.88 2.53 2.67 2.58
1.90 2.01 2.01 2.17 1.57 1.65 1.96 1.53 1.73 1.79 1.74 1.53 1.36 1.58 nan 1.80 1.92 2.08 2.32 2.98 3.58 3.54 3.94 4.54 4.45 4.85 4.34 4.07 3.72 3.50 2.95 3.39 3.62 3.37 2.80 2.89 3.37 2.98 2.96 2.14 2.22 1.97 2.56
1.88 1.66 1.71 1.68 1.66 1.64 1.87 2.15 1.93 1.87 1.74 1.90 1.74 1.68 1.92 2.44 2.17 2.04 2.92 3.16 2.59 2.47 2.76 2.98 2.79 2.72 2.54 2.96 2.68 2.67 2.88 3.12 3.23 4.22 2.97 3.04 2.88 3.30 2.99 2.71 2.39 2.64 2.48
1.63 1.65 1.62 2.05 1.84 1.56 1.80 1.90 1.67 1.68 1.78 1.93 2.94 2.43 1.49 1.87 2.68 2.01 2.10 2.49 2.06 3.49 2.51 2.70 2.24 2.21 2.47 3.69 4.73 4.68 5.09 5.39 5.14 4.73 4.22 2.90 2.80 2.43 2.40 2.78 2.22 2.17 1.84
1.74 1.52 1.57 1.50 2.26 1.80 1.67 1.99 1.40 1.92 2.28 1.76 2.21 1.55 1.62 1.50 1.72 2.54 2.36 1.93 2.19 2.02 1.75 1.75 1.85 1.96 2.03 2.17 3.00 3.84 4.05 1.65 3.02 1.77 3.57 2.54 3.01 3.04 2.90 2.48 2.29 1.94 1.74
1.40 1.46 1.50 1.52 1.48 1.65 1.75 1.71 1.78 1.39 1.79 1.91 1.79 1.81 1.57 1.58 1.62 2.00 1.91 1.97 1.66 1.71 1.81 1.97 2.00 1.84 1.75 1.98 2.08 1.89 1.57 1.43 3.36 1.56 2.94 2.46 2.76 2.51 2.43 2.45 2.27 2.16 1.76
SL_Ratio
nan nan nan nan nan nan nan nan nan nan nan nan nan nan nan nan nan nan nan nan nan 6.2 6.3 6.1 4.6 3.9 4.1 4.3 4.7 5.0 5.5 6.3 7.8 6.8 5.0 5.0 5.4 5.6 5.8 5.0 5.0 6.3 5.0
nan nan nan nan nan 5.6 5.8 nan nan 6.1 7.0 4.5 nan nan nan nan nan 5.0 4.5 4.7 5.1 4.5 4.1 4.2 4.3 4.3 5.1 5.3 6.0 6.8 7.0 6.8 7.4 8.0 nan 5.7 6.0 5.0 5.0 5.3 5.7 nan nan
3.3 7.5 5.0 5.0 6.4 5.5 5.6 2.5 nan nan nan nan nan 5.6 5.7 5.2 4.7 4.9 4.8 4.0 4.0 4.0 4.2 4.8 5.1 5.9 6.5 6.8 6.9 7.1 7.0 6.4 7.1 7.1 6.0 5.4 2.7 2.5 2.5 2.5 nan nan nan
2.3 2.5 1.7 nan nan nan 5.0 5.6 5.0 3.6 5.0 5.0 3.8 3.6 3.4 3.2 3.3 3.3 3.6 3.9 4.3 4.8 5.0 6.1 6.8 7.0 7.1 7.1 6.9 7.1 6.9 6.6 6.4 6.1 4.4 2.8 2.6 2.5 2.5 2.6 2.9 2.5 2.5
2.8 2.9 2.5 nan 5.0 5.5 nan nan 4.3 4.7 4.6 3.0 3.1 3.2 3.2 3.7 3.8 4.2 4.5 5.0 6.0 6.6 6.8 6.7 6.9 4.8 nan nan 6.5 6.8 6.9 6.0 3.5 3.2 3.1 2.9 2.9 3.0 3.2 3.0 3.1 2.8 2.9
nan 5.0 nan nan 5.0 5.3 2.9 3.1 2.9 3.3 3.4 3.7 3.8 4.1 4.7 4.6 nan nan 6.4 6.6 6.7 7.0 7.2 6.9 6.8 5.7 6.7 nan nan nan nan 7.5 6.5 3.3 3.5 3.9 5.4 3.1 3.0 3.5 4.1 4.6 6.3
3.9 3.5 4.5 4.2 5.0 4.7 5.2 5.5 5.7 5.9 5.9 6.0 6.0 5.9 6.1 6.0 nan nan nan 6.6 6.8 6.9 6.7 6.7 7.1 7.0 2.9 6.0 nan nan nan nan nan 6.7 6.6 4.9 7.2 5.8 6.7 6.4 6.9 5.6 4.9
5.9 5.6 5.7 5.5 5.2 5.4 5.7 5.7 5.6 5.6 5.7 5.9 6.6 7.0 6.8 6.4 nan nan nan 5.7 6.5 6.8 7.2 7.1 6.8 6.7 5.0 4.4 4.2 5.3 5.7 5.9 6.2 5.9 6.4 6.7 6.4 6.3 7.2 7.6 8.0 6.8 4.3
7.0 6.6 6.3 5.4 5.3 5.3 5.5 5.7 5.8 6.2 6.3 6.2 5.9 4.7 4.6 4.1 nan nan 5.0 5.0 6.3 6.0 5.0 nan nan 3.3 nan nan 5.0 5.6 6.6 7.0 nan nan nan nan nan nan nan 4.6 4.5 5.2 5.8
6.6 6.6 6.3 5.0 4.9 5.2 4.9 5.1 4.9 4.4 4.4 4.0 4.3 3.6 3.3 3.7 nan nan nan 2.5 3.9 3.4 4.1 4.4 3.4 3.8 nan nan 4.8 5.6 5.6 7.1 6.2 4.6 5.8 7.6 nan nan nan 8.7 5.7 6.2 6.8
4.7 4.3 4.9 4.5 5.2 4.3 4.7 5.1 4.9 5.2 5.3 5.3 5.4 4.5 4.3 3.6 3.1 nan nan 2.8 3.4 4.1 4.3 4.6 4.6 nan nan nan nan 7.1 7.8 7.5 5.2 5.3 5.6 5.5 6.4 6.8 5.6 6.6 9.1 7.5 7.6
8.5 8.4 7.9 6.5 6.2 6.2 5.6 5.9 5.4 5.8 5.8 5.8 5.7 5.0 4.4 4.9 nan nan nan nan nan 4.0 4.9 4.5 4.4 nan nan nan 4.2 nan nan 4.7 4.6 5.1 5.4 5.7 6.2 6.6 7.3 7.3 10.2 8.6 8.2
7.6 7.0 6.7 6.3 6.2 6.1 5.7 6.5 5.8 6.0 5.8 6.4 5.9 6.0 6.3 5.3 4.5 nan nan nan nan 4.4 4.6 4.9 nan nan nan nan nan nan 3.0 5.5 5.6 6.0 6.4 6.9 7.4 8.0 9.5 9.2 10.4 10.0 10.7
6.4 7.2 7.4 6.9 6.0 6.3 5.3 5.2 5.2 5.7 6.1 6.0 5.9 6.0 6.3 6.3 5.7 5.6 4.9 4.9 3.8 4.9 nan 5.3 nan 5.7 nan nan 5.5 6.5 6.4 6.7 7.5 7.6 7.8 8.3 8.6 8.4 8.0 7.9 8.1 8.2 7.9
6.7 8.2 7.3 6.3 6.0 7.0 6.7 5.9 6.2 6.4 5.8 6.0 5.6 6.0 6.5 6.7 5.9 5.6 5.0 4.8 4.4 4.4 4.4 5.3 5.9 6.4 6.5 6.8 6.6 7.1 7.3 7.0 7.3 7.4 7.8 8.7 8.6 8.6 8.5 8.2 8.4 8.5 8.1
8.8 8.0 7.2 6.8 7.3 7.4 7.8 8.6 nan nan nan nan nan 5.2 4.9 nan nan nan nan nan nan nan 5.1 5.7 6.9 7.3 7.9 8.1 8.1 8.4 8.0 7.1 8.0 8.0 8.0 8.4 8.7 9.0 9.0 9.1 8.6 8.7 9.0
8.2 9.6 8.2 8.1 8.9 8.5 8.3 8.3 9.0 8.5 nan nan nan nan nan nan nan nan nan nan nan nan 5.6 6.7 7.5 8.3 8.4 8.9 8.7 9.2 9.7 9.2 9.7 8.5 8.6 8.7 8.5 8.5 8.1 8.9 9.2 9.1 8.1
9.2 3.0 8.6 8.7 8.6 8.6 8.2 8.0 8.1 8.6 8.8 8.8 nan nan nan nan nan nan nan nan 6.2 nan 6.4 6.7 7.1 7.5 8.1 8.6 8.9 9.3 9.3 9.4 9.6 9.1 8.9 8.0 7.8 8.0 8.2 8.1 8.4 8.0 8.0
10.0 9.6 9.5 9.2 9.4 9.1 8.7 9.2 9.0 9.5 9.6 9.0 8.8 8.3 4.9 nan nan nan nan 6.4 6.4 7.0 7.1 7.1 7.4 7.7 8.1 8.0 8.1 7.8 8.4 8.6 8.6 7.9 7.7 7.6 7.8 7.8 7.7 8.1 8.6 6.1 6.3
10.8 4.1 7.6 9.2 10.2 10.7 11.0 10.5 10.9 10.7 10.5 9.7 9.6 9.5 8.0 7.0 6.9 6.7 6.9 6.5 6.6 7.0 7.3 7.2 7.1 6.9 6.9 7.0 7.1 7.3 7.5 7.5 7.8 7.7 7.8 7.8 7.8 7.7 8.7 7.7 7.9 8.5 8.0
9.8 10.3 3.0 10.5 9.6 9.3 9.3 9.9 10.3 9.7 9.9 9.4 9.9 9.7 nan 8.6 8.5 8.0 7.4 8.0 7.5 7.3 7.9 7.5 7.5 7.0 6.7 6.6 7.1 7.4 7.5 8.5 8.0 8.0 7.7 7.8 7.9 7.7 8.2 9.0 8.0 7.8 7.9
9.8 9.5 9.5 9.4 10.4 10.2 9.7 10.5 10.2 10.1 10.5 11.0 11.1 10.1 nan 10.0 9.9 9.7 9.6 8.7 8.2 8.2 7.8 7.5 7.5 7.2 7.6 7.8 8.2 8.3 8.9 8.3 8.0 8.4 9.1 8.9 8.3 8.5 8.3 9.2 8.9 9.2 8.2
10.4 11.1 10.8 10.9 10.9 4.8 10.4 9.8 10.3 10.4 10.8 10.4 10.8 11.1 10.6 9.7 10.2 10.5 9.1 8.8 9.6 9.8 9.2 9.0 9.1 9.3 9.3 8.9 9.2 9.4 9.5 8.9 8.8 7.8 9.3 9.0 9.0 8.4 8.5 8.7 8.9 8.6 8.5
11.2 11.1 11.2 10.1 10.6 11.4 10.8 10.6 11.1 4.3 10.9 10.7 9.1 9.8 11.6 10.7 9.5 10.7 10.4 9.7 10.3 8.4 9.6 9.3 10.1 10.2 9.7 8.2 7.4 7.5 7.3 7.2 7.4 7.6 7.9 9.4 9.4 8.8 9.6 8.8 9.2 8.8 9.7
10.8 11.5 11.3 11.6 9.9 10.8 11.1 10.3 11.7 10.4 9.8 10.6 9.7 10.9 11.0 11.3 10.9 9.3 9.6 10.3 9.9 10.1 10.6 10.7 10.5 10.4 10.4 10.2 9.1 8.1 7.3 3.0 6.9 3.0 8.4 9.6 9.1 9.0 9.2 9.4 9.4 9.9 10.0
11.7 11.5 11.4 11.2 11.3 10.7 10.5 10.5 10.3 11.2 10.2 9.9 10.3 10.2 10.8 10.9 10.7 9.8 10.3 10.4 11.3 11.0 10.8 10.4 10.5 11.0 11.2 10.8 10.5 4.2 3.0 3.0 8.3 3.0 9.1 10.1 9.6 10.1 10.1 9.9 10.2 10.1 10.5